Date String (YYYY-MM-DD hh:mm:ss) UTC,Instrument flags,Ambient pressure (hPa),Sample flow (lpm),Bypass flow (lpm),Sample temperature (°C),Ambient temperature (°C),ASC tube jacket temperature (°C),LED temperature (°C),Box temperature (°C),Sample RH (%),Span deviation,Mass concentration (μg/m³),Mass concentration (μg/m³),Mass concentration (μg/m³)
DateTimeUTC,F1_M11,P_M11,Q1_M11,Q2_M11,T1_M11,T2_M11,T3_M11,T4_M11,T5_M11,U1_M11,ZSPAN_M11,X0_M11,X2_M11,X1_M11
2023-02-08 04:00:00,,0828.1,5.06,0.00,22.6,21.0,00.0,31.6,24.2,09.1,0000.0,0011.28,0003.34,0002.27
2023-02-08 04:01:00,,0828.1,4.97,0.00,22.6,21.0,00.0,31.5,24.2,09.1,0000.0,0012.25,0003.34,0002.27
2023-02-08 04:02:00,,0828.1,4.93,0.00,22.5,21.0,00.0,31.5,24.2,09.0,0000.0,0011.80,0003.35,0002.27
2023-02-08 04:03:00,,0828.1,4.91,0.00,22.5,21.0,00.0,31.5,24.2,09.0,0000.0,0011.67,0003.40,0002.27
2023-02-08 04:04:00,,0828.1,5.03,0.00,22.5,20.9,00.0,31.5,24.1,09.0,0000.0,0011.19,0003.39,0002.29
2023-02-08 04:05:00,,0828.1,4.96,0.00,22.5,20.9,00.0,31.5,24.1,09.0,0000.0,0011.40,0003.38,0002.29
2023-02-08 04:06:00,,0828.1,5.00,0.00,22.5,20.9,00.0,31.5,24.1,09.0,0000.0,0011.06,0003.36,0002.28
2023-02-08 04:07:00,,0828.1,4.99,0.00,22.5,20.9,00.0,31.5,24.0,09.0,0000.0,0009.97,0003.31,0002.26
2023-02-08 04:08:00,,0828.1,5.04,0.00,22.4,20.9,00.0,31.5,24.1,09.0,0000.0,0009.74,0003.28,0002.25
2023-02-08 04:09:00,,0828.1,4.94,0.00,22.4,20.9,00.0,31.4,24.1,09.0,0000.0,0010.06,0003.27,0002.25
2023-02-08 04:10:00,,0828.1,5.04,0.00,22.4,20.8,00.0,31.4,24.1,08.9,0000.0,0010.08,0003.27,0002.25
2023-02-08 04:11:00,,0828.1,4.99,0.00,22.4,20.8,00.0,31.4,24.0,08.9,0000.0,0009.95,0003.22,0002.23
2023-02-08 04:12:00,,0828.1,4.98,0.00,22.4,20.8,00.0,31.4,24.0,08.9,0000.0,0009.04,0003.24,0002.23
2023-02-08 04:13:00,,0828.1,5.00,0.00,22.4,20.8,00.0,31.4,24.0,08.9,0000.0,0009.50,0003.23,0002.22
2023-02-08 04:14:00,,0828.1,4.93,0.00,22.4,20.8,00.0,31.4,24.0,08.8,0000.0,0009.50,0003.18,0002.21
2023-02-08 04:15:00,,0828.1,4.93,0.00,22.4,20.8,00.0,31.4,24.0,08.8,0000.0,0009.53,0003.18,0002.20
2023-02-08 04:16:00,,0828.1,4.92,0.00,22.3,20.8,00.0,31.3,24.0,08.9,0000.0,0008.80,0003.21,0002.20
2023-02-08 04:17:00,,0828.0,5.04,0.00,22.3,20.7,00.0,31.3,24.0,08.9,0000.0,0008.87,0003.21,0002.20
2023-02-08 04:18:00,,0828.0,5.07,0.00,22.3,20.7,00.0,31.3,24.0,08.9,0000.0,0008.91,0003.21,0002.18
2023-02-08 04:19:00,,0828.1,5.08,0.00,22.3,20.7,00.0,31.3,24.0,08.9,0000.0,0008.43,0003.19,0002.17
2023-02-08 04:20:00,,0828.0,4.98,0.00,22.3,20.7,00.0,31.3,24.0,09.0,0000.0,0008.15,0003.15,0002.14
2023-02-08 04:21:00,,0828.0,5.06,0.00,22.3,20.7,00.0,31.3,23.9,09.1,0000.0,0008.72,0003.15,0002.12
2023-02-08 04:22:00,,0828.0,5.02,0.00,22.3,20.7,00.0,31.3,23.9,09.2,0000.0,0008.89,0003.18,0002.12
2023-02-08 04:23:00,,0828.0,4.98,0.00,22.2,20.6,00.0,31.3,23.9,09.4,0000.0,0008.88,0003.18,0002.13
2023-02-08 04:24:00,,0828.0,5.01,0.00,22.2,20.6,00.0,31.2,23.9,09.7,0000.0,0008.16,0003.23,0002.19
2023-02-08 04:25:00,,0827.9,5.01,0.00,22.2,20.6,00.0,31.2,23.9,09.8,0000.0,0008.29,0003.25,0002.22
2023-02-08 04:26:00,,0828.0,5.00,0.00,22.2,20.6,00.0,31.2,23.8,10.0,0000.0,0008.89,0003.27,0002.27
2023-02-08 04:27:00,,0828.0,4.89,0.00,22.2,20.7,00.0,31.2,24.0,10.3,0000.0,0009.36,0003.32,0002.38
2023-02-08 04:28:00,,0827.9,5.00,0.00,22.3,21.4,00.0,31.1,24.2,10.5,0000.0,0009.60,0003.43,0002.55
2023-02-08 04:29:00,,0828.0,5.02,0.00,22.4,22.2,00.0,31.1,24.4,10.4,0000.0,0010.18,0003.61,0002.73
2023-02-08 04:30:00,,0828.0,4.97,0.00,22.5,22.6,00.0,31.2,24.5,10.3,0000.0,0010.55,0003.76,0002.89
2023-02-08 04:31:00,,0828.0,5.00,0.00,22.5,22.2,00.0,31.2,24.5,10.5,0000.0,0011.14,0003.92,0003.07
2023-02-08 04:32:00,,0827.9,4.99,0.00,22.5,21.9,00.0,31.3,24.4,10.6,0000.0,0010.96,0004.03,0003.20
2023-02-08 04:33:00,,0828.0,4.99,0.00,22.5,21.7,00.0,31.3,24.4,10.6,0000.0,0011.54,0004.18,0003.30
2023-02-08 04:34:00,,0827.9,4.96,0.00,22.5,21.5,00.0,31.3,24.3,10.5,0000.0,0012.02,0004.31,0003.40
2023-02-08 04:35:00,,0827.9,4.93,0.00,22.5,21.4,00.0,31.3,24.3,10.5,0000.0,0012.55,0004.38,0003.46
2023-02-08 04:36:00,,0827.9,4.99,0.00,22.5,21.3,00.0,31.3,24.2,10.5,0000.0,0013.27,0004.51,0003.54
2023-02-08 04:37:00,,0827.9,5.07,0.00,22.5,21.2,00.0,31.3,24.2,10.5,0000.0,0013.06,0004.58,0003.60
2023-02-08 04:38:00,,0827.9,5.03,0.00,22.5,21.1,00.0,31.3,24.2,10.5,0000.0,0012.95,0004.63,0003.64
2023-02-08 04:39:00,,0827.9,5.00,0.00,22.4,21.0,00.0,31.3,24.1,10.5,0000.0,0012.98,0004.65,0003.64
2023-02-08 04:40:00,,0828.0,5.01,0.00,22.4,21.0,00.0,31.3,24.1,10.3,0000.0,0012.87,0004.68,0003.63
2023-02-08 04:41:00,,0827.9,5.01,0.00,22.4,21.0,00.0,31.3,24.1,10.1,0000.0,0012.59,0004.62,0003.60
2023-02-08 04:42:00,,0827.9,4.98,0.00,22.4,20.9,00.0,31.3,24.1,10.1,0000.0,0012.19,0004.60,0003.57
2023-02-08 04:43:00,,0827.9,4.95,0.00,22.4,20.9,00.0,31.3,24.1,10.1,0000.0,0012.05,0004.55,0003.52
2023-02-08 04:44:00,,0827.9,5.02,0.00,22.4,20.9,00.0,31.3,24.0,10.1,0000.0,0011.78,0004.47,0003.48
2023-02-08 04:45:00,,0827.9,4.99,0.00,22.3,20.9,00.0,31.3,24.0,10.0,0000.0,0011.68,0004.41,0003.43
2023-02-08 04:46:00,,0827.9,4.92,0.00,22.3,20.8,00.0,31.3,24.0,10.1,0000.0,0011.59,0004.36,0003.40
2023-02-08 04:47:00,,0827.9,4.95,0.00,22.3,20.8,00.0,31.3,24.0,09.9,0000.0,0010.72,0004.26,0003.34
2023-02-08 04:48:00,,0827.9,4.97,0.00,22.3,20.8,00.0,31.3,23.9,09.9,0000.0,0010.18,0004.20,0003.29
2023-02-08 04:49:00,,0827.9,5.06,0.00,22.3,20.7,00.0,31.2,23.9,09.8,0000.0,0010.06,0004.13,0003.22
2023-02-08 04:50:00,,0827.9,5.00,0.00,22.3,20.7,00.0,31.2,23.9,09.7,0000.0,0009.90,0004.10,0003.17
2023-02-08 04:51:00,,0827.9,4.89,0.00,22.2,20.7,00.0,31.2,23.9,09.7,0000.0,0009.72,0004.00,0003.13
2023-02-08 04:52:00,,0827.9,5.07,0.00,22.2,20.7,00.0,31.2,23.9,09.7,0000.0,0010.21,0003.96,0003.11
2023-02-08 04:53:00,,0827.9,4.96,0.00,22.2,20.9,00.0,31.2,24.0,09.6,0000.0,0010.16,0003.91,0003.09
2023-02-08 04:54:00,,0827.9,4.98,0.00,22.3,21.8,00.0,31.1,24.3,09.4,0000.0,0010.50,0003.87,0003.03
2023-02-08 04:55:00,,0827.8,5.02,0.00,22.4,22.6,00.0,31.1,24.5,09.2,0000.0,0010.49,0003.82,0002.95
2023-02-08 04:56:00,,0827.8,5.02,0.00,22.5,22.5,00.0,31.2,24.5,09.1,0000.0,0010.78,0003.71,0002.86
2023-02-08 04:57:00,,0827.8,4.99,0.00,22.5,22.1,00.0,31.2,24.4,09.1,0000.0,0010.37,0003.63,0002.75
2023-02-08 04:58:00,,0827.8,5.01,0.00,22.5,21.8,00.0,31.3,24.3,09.1,0000.0,0010.35,0003.60,0002.70
2023-02-08 04:59:00,,0827.8,4.98,0.00,22.5,21.6,00.0,31.3,24.3,09.1,0000.0,0010.44,0003.54,0002.64
